Regional Weather Roundup
Issued by NWS

Home | Current Version | Previous Version | Graphics & Text | Print | Product List | Glossary On
Versions: 1 2 3 4 5 6 7 8 9 10 11 12 13 14 15 16 17 18 19 20 21 22 23 24 25 26 27 28 29 30 31 32 33 34 35 36 37 38 39 40 41 42 43 44 45 46 47 48 49 50
000
ASUS43 KLOT 290608
RWRIL

ILLINOIS REGIONAL WEATHER ROUNDUP
NATIONAL WEATHER SERVICE CHICAGO/ROMEOVILLE IL
100 AM CDT WED JUL 29 2015

NOTE: "FAIR" INDICATES FEW OR NO CLOUDS BELOW 12,000 FEET WITH NO
SIGNIFICANT WEATHER AND/OR OBSTRUCTIONS TO VISIBILITY.

* THESE STATIONS ARE NOT UNDER NWS QUALITY CONTROL. THEY ALSO MAY NOT
  REPORT WEATHER SUCH AS PRECIPITATION OR FOG.

ILZ001-002-007-009-015-016-024-290700-
NORTHWEST ILLINOIS

CITY           SKY/WX    TMP DP  RH WIND       PRES   REMARKS
MOLINE         CLOUDY    77  74  90 CALM      29.91F
6HR MIN TEMP:  77; 6HR MAX TEMP:  85; 6HR PCP: TRACE;

STERLING*      CLOUDY    73  72  94 SE3       29.91F
SAVANNA*       CLOUDY    76  74  92 CALM      29.93R
$$

ILZ003-004-008-010-011-017-018-290700-
NORTH CENTRAL ILLINOIS

CITY           SKY/WX    TMP DP  RH WIND       PRES   REMARKS
ROCKFORD       CLOUDY    75  71  87 CALM      29.94F
6HR MIN TEMP:  75; 6HR MAX TEMP:  84;

FREEPORT*      CLOUDY    73  71  95 CALM      29.94F
ROCHELLE*      CLOUDY    73  72  97 CALM      29.95F FOG
DE KALB*       CLOUDY    74  71  90 SW5       29.95F
PERU*          TSTM      74  71  91 SE9       29.94F
$$

ILZ005-006-012>014-019>023-290700-
NORTHEAST ILLINOIS

CITY           SKY/WX    TMP DP  RH WIND       PRES   REMARKS
CHICAGO-OHARE  CLOUDY    79  73  82 CALM      29.92F HX  82
6HR MIN TEMP:  77; 6HR MAX TEMP:  87;

CHICAGO-MIDWAY CLOUDY    83  73  72 SE5       29.92F HX  89
6HR MIN TEMP:  83; 6HR MAX TEMP:  89;

AURORA         TSTM      74  70  87 W14G28    29.97S VSB 1/2
6HR MIN TEMP:  76; 6HR MAX TEMP:  84; 6HR PCP: TRACE;

LANSING*       PTCLDY    76  72  87 SE3       29.94F
WAUKEGAN       CLOUDY    73  71  93 CALM      29.92F
6HR MIN TEMP:  70; 6HR MAX TEMP:  81;

DUPAGE AIRPORT CLOUDY    78  72  81 CALM      29.93F HX  80
6HR MIN TEMP:  75; 6HR MAX TEMP:  85;

KANKAKEE*      MOCLDY    77  76  96 SE3       29.95F
WHEELING       LGT RAIN  80  73  79 CALM      29.93F HX  84
6HR MIN TEMP:  78; 6HR MAX TEMP:  87; 6HR PCP: TRACE;

MORRIS*        CLOUDY    77  76  95 S5        29.92F FOG
NORTHERLY ISL    N/A     78  72  81 SE2         N/A  HX  80
$$

LMZ740>746-290700-
SOUTHERN LAKE MICHIGAN

STATION/POSITION SKY/WX   TEMP    WIND        PRES    VSBY  WAVE
                          AIR SEA DIR/SP/G                  HT/PER
                          (F)     (DEG/KT/KT) (MB)    (MI)  (FT/S)
HARRISON CRIB              82     190/  8/  9   N/A
BURNHAM HARBOR             78     150/  3/  4   N/A
CALUMET HARBOR             81     180/  2/  2   N/A
BURNS HARBOR               80     170/  4/ 20 1013.9F
MICHIGAN CITY              80     130/  6/  7   N/A
MICHIGAN CITY 6N           76 75  180/  6/  6   N/A           0
ST. JOSEPH                 77 76  200/  6/  6   N/A           1
$$

ILZ025>027-034>036-040-047-049-050-058-095>099-290700-
WEST-CENTRAL ILLINOIS

CITY           SKY/WX    TMP DP  RH WIND       PRES   REMARKS
QUINCY         PTCLDY    80  78  94 W12G17    29.96R HX  88
GALESBURG*     CLOUDY    78  77  96 E5        29.93F HX  82
MACOMB*        MOCLDY    78  77  96 E3        29.96F FOG     HX  81
JACKSONVILLE*  CLEAR     82  78  86 S5        29.93S HX  92
PITTSFIELD*    MOCLDY    82  79  89 CALM      29.96S HX  92
$$

ILZ028>032-037-038-041>044-048-051>054-059>061-290700-
CENTRAL ILLINOIS

CITY           SKY/WX    TMP DP  RH WIND       PRES   REMARKS
PONTIAC        MOCLDY    76  72  88 NW8       29.96S
BLOOMINGTON    PTCLDY    74  72  93 S6        29.96F
DECATUR        CLEAR     75  72  90 CALM      29.95F
PEORIA         MOCLDY    80  72  76 N6        29.95F HX  84
6HR MIN TEMP:  80; 6HR MAX TEMP:  84;

LACON*         TSTM      74  72  92 SE5       29.94R
LINCOLN*       PTCLDY    76  72  87 CALM      29.94F
SPRINGFIELD    PTCLDY    81  76  84 S3        29.94F HX  87
6HR MIN TEMP:  81; 6HR MAX TEMP:  87;

TAYLORVILLE    PTCLDY    77  73  88 CALM      29.95F
$$

ILZ033-039-045-046-055>057-062-063-290700-
EAST-CENTRAL ILLINOIS

CITY           SKY/WX    TMP DP  RH WIND       PRES   REMARKS
CHAMPAIGN      CLEAR     73  71  93 E5        29.96F
DANVILLE*      PTCLDY    72  72  99 CALM      29.94F FOG
RANTOUL*       CLEAR     75  74  95 CALM      29.95F
MATTOON        PTCLDY    77  69  76 S6        29.96F
PARIS*         PTCLDY    72  72  99 CALM      29.97F FOG
$$

ILZ079-100>102-290700-
SOUTHWEST ILLINOIS

CITY           SKY/WX    TMP DP  RH WIND       PRES   REMARKS
ALTON          LGT RAIN  76  75  95 CALM      29.94F
CAHOKIA*       PTCLDY    80  76  87 S5        29.95F HX  86
SPARTA*        PTCLDY    78  76  93 CALM      29.99F HX  81
$$

ILZ064>066-069>071-074>076-080>082-084>086-088>090-092>094-290700-
SOUTH-CENTRAL ILLINOIS

CITY           SKY/WX    TMP DP  RH WIND       PRES   REMARKS
CARBONDALE     MOCLDY    77  72  84 S7        29.98S
6HR MIN TEMP:  77; 6HR MAX TEMP:  84; 6HR PCP:  0.15;

CAIRO*         MOCLDY    78  74  87 SE5       29.99S HX  81
EFFINGHAM*     MOCLDY    76  73  90 E3        29.98F FOG
MARION         MOCLDY    77  73  88 S6        29.99S
MT. VERNON     MOCLDY    77  70  78 CALM      29.98F
CENTRALIA*     MOCLDY    77  73  88 CALM      29.97F
SALEM*         MOCLDY    81  75  83 CALM      29.98S HX  86
METROPOLIS*    CLOUDY    77  76  98 S3        29.99S
$$

ILZ067-068-072-073-078-083-087-091-290700-
SOUTHEAST ILLINOIS

CITY           SKY/WX    TMP DP  RH WIND       PRES   REMARKS
LAWRENCEVILLE  MOCLDY    76  74  93 S5        29.98S
FLORA*         MOCLDY    75  73  94 CALM      29.98S
FAIRFIELD*     MOCLDY    75  74  97 CALM      29.96F
HARRISBURG*    MOCLDY    76  75  99 CALM      30.00S
ROBINSON*      MOCLDY    76  75  97 CALM      29.98S
CARMI*         PTCLDY    73  69  86 MISG      29.97S FOG
$$

ABBREVIATIONS USED IN REMARKS
   TC - TEMPERATURE IN CELSIUS
  WCI - WIND CHILL INDEX
   HX - HEAT INDEX
  VSB - VISIBILITY
$$



USA.gov is the U.S. government's official web portal to all federal, state and local government web resources and services.